Dewpoint
26 25 31 33 40 40 32 31 39 44 48 50 51 50 53 57 57 54 56 55 55 54 57 59 58 58 59 62 65 66 67 71 69 67 67 64 63 64 63 65 69 70 69 71
21 20 27 31 30 29 30 30 41 45 47 50 47 46 52 55 57 56 55 56 56 54 60 61 58 58 59 63 64 67 68 71 70 66 71 67 71 63 64 65 69 69 69 72
17 18 20 22 22 26 27 29 36 48 45 45 42 49 49 53 56 57 58 57 56 57 55 56 57 60 60 63 65 66 69 70 71 70 69 70 69 71 66 68 67 67 69 70
15 18 16 13 22 26 25 30 31 37 44 46 42 42 51 51 53 55 55 58 57 55 60 60 57 58 60 62 65 67 69 70 70 72 72 72 66 65 65 65 65 67 70 70
11 9 12 13 18 23 26 31 34 38 35 40 42 30 45 47 51 52 54 55 55 56 53 55 60 59 60 61 63 66 69 70 71 72 73 69 70 69 67 67 73 74 73 72
18 16 9 15 18 18 24 29 34 34 32 27 34 25 38 49 43 49 52 54 56 54 54 56 55 60 58 61 62 64 69 70 72 72 72 72 70 70 72 69 66 65 68 69
19 15 17 20 23 24 28 28 33 33 35 30 32 20 37 37 41 46 49 50 56 56 56 55 56 57 60 61 62 64 69 70 71 71 71 71 72 71 70 69 65 68 70 65
17 16 19 24 27 28 28 24 25 30 31 24 28 23 35 36 41 48 52 52 51 53 56 55 55 58 60 59 62 65 69 71 70 70 71 73 73 69 67 69 65 62 66 67
16 20 19 23 24 21 25 23 20 21 18 18 22 29 30 33 39 44 49 53 53 52 54 56 56 56 59 60 61 63 68 71 71 69 74 72 75 72 70 74 71 67 72 69
21 23 21 18 19 19 22 24 21 17 25 26 27 26 36 39 39 40 43 48 54 55 55 54 56 58 59 61 61 63 65 69 70 69 70 70 71 72 71 71 74 73 71 69
16 22 24 22 21 20 20 20 19 18 25 21 25 29 30 39 39 40 44 48 51 53 55 56 56 58 61 61 63 62 64 66 69 68 70 71 70 70 71 69 71 71 72 72
18 19 26 22 21 22 22 23 25 20 27 26 23 29 33 39 40 43 48 51 55 56 56 57 59 58 58 63 64 67 64 64 67 69 70 70 70 70 69 70 69 70 73 74
20 22 26 26 22 25 23 22 20 22 21 31 28 32 40 38 40 44 46 52 56 57 59 59 59 60 60 61 65 64 65 66 67 68 67 69 70 70 70 70 72 71 74 74
36 22 24 26 31 25 26 22 23 22 22 23 24 33 37 39 40 45 46 51 52 55 60 60 59 61 63 64 65 67 65 66 66 69 70 72 71 72 69 71 73 72 74 75
25 28 28 29 29 23 22 20 20 22 25 25 28 31 33 40 41 46 48 51 52 54 55 60 60 63 63 65 67 68 68 69 68 68 69 73 75 74 75 76 75 74 75 74
29 29 30 29 24 22 20 18 18 18 23 26 26 28 36 46 45 47 50 50 52 53 54 56 60 63 64 64 66 66 67 67 70 69 70 73 75 75 75 76 75 76 75 76
30 27 30 30 25 24 22 22 21 21 23 23 24 31 45 47 45 49 52 52 52 53 53 56 58 62 64 65 68 69 70 70 70 69 70 72 74 74 76 76 76 76 76 77
32 34 31 27 29 25 25 27 24 24 24 24 25 27 36 44 49 51 53 53 53 53 53 56 58 60 61 62 64 68 69 70 72 72 71 73 73 74 76 76 76 77 76 77
28 33 30 28 25 28 25 28 28 27 30 31 31 35 42 45 48 49 49 50 51 53 53 55 57 60 62 61 62 66 67 68 69 70 72 73 72 74 75 75 75 76 76 76
28 32 29 30 27 27 29 27 28 31 31 35 36 38 44 46 43 46 48 47 48 48 49 50 53 56 59 62 63 65 66 67 68 69 70 71 73 74 74 75 76 76 76 76
31 32 30 28 29 29 30 28 31 31 35 33 34 40 45 45 47 51 50 49 50 51 51 53 55 54 57 61 63 66 66 67 68 69 71 72 73 72 73 75 77 76 76 76
33 31 28 30 31 31 31 30 32 37 39 35 38 39 43 49 45 44 44 45 46 48 48 53 59 58 58 60 63 65 66 68 69 70 71 72 72 71 70 73 74 74 75 74
32 31 30 31 29 40 36 36 35 35 38 36 38 38 43 45 43 42 44 44 44 46 51 52 55 58 60 63 64 64 67 68 70 71 71 71 70 70 69 69 70 70 70 68
35 36 33 39 36 35 37 36 35 36 36 39 39 40 44 43 41 42 42 44 47 49 51 52 56 57 59 62 63 67 68 69 69 69 70 69 68 64 62 62 61 67 68 68
39 39 39 37 38 38 38 36 36 37 38 37 39 41 44 42 42 43 44 48 49 51 52 54 56 58 60 62 63 65 67 69 69 69 68 66 63 62 59 53 51 55 57 56
38 38 34 31 41 42 41 39 38 39 40 41 42 44 43 43 43 46 48 49 52 53 54 57 58 58 59 62 64 66 68 69 68 67 65 64 61 60 58 56 55 48 46 46
Lifted_Index
4 2 -0 -1 -1 -0 -1 -2 -2 -2 -2 -3 -3 -3 -2 -2 -2 -2 -2 -2 -2 -2 -2 -2 -2 -2 -2 -2 -3 -3 -4 -5 -5 -4 -4 -3 -3 -3 -3 -3 -4 -4 -4 -5
3 2 0 -0 0 0 -0 -1 -2 -2 -2 -2 -2 -2 -2 -2 -2 -2 -2 -2 -2 -2 -2 -2 -2 -2 -2 -2 -3 -3 -4 -4 -5 -4 -4 -4 -4 -3 -3 -3 -4 -4 -4 -5
3 2 1 1 1 1 -0 -1 -2 -2 -2 -2 -2 -2 -2 -2 -2 -2 -2 -2 -2 -2 -2 -2 -2 -2 -2 -3 -3 -3 -4 -4 -4 -4 -4 -4 -4 -4 -3 -3 -4 -4 -4 -5
2 2 2 1 1 0 -0 -1 -1 -2 -2 -1 -1 -1 -2 -2 -3 -3 -2 -3 -3 -2 -2 -2 -3 -2 -2 -3 -3 -3 -4 -4 -4 -5 -5 -4 -4 -4 -3 -3 -3 -4 -4 -5
1 2 2 1 0 -0 -0 -0 -1 -2 -2 -1 -1 -1 -1 -2 -3 -3 -3 -3 -2 -2 -2 -3 -3 -3 -3 -3 -3 -3 -3 -4 -4 -5 -5 -4 -4 -4 -3 -3 -3 -4 -4 -5
1 2 1 1 0 0 0 -0 -1 -1 -1 -1 -1 -1 -1 -1 -2 -3 -3 -3 -2 -2 -3 -3 -3 -3 -3 -3 -3 -3 -4 -4 -4 -5 -5 -4 -4 -4 -4 -3 -3 -3 -4 -4
1 1 1 1 0 0 0 -0 -0 -1 -1 -1 -0 -1 -1 -1 -2 -3 -3 -3 -3 -3 -3 -3 -3 -3 -3 -3 -3 -3 -4 -4 -4 -4 -4 -4 -4 -4 -4 -3 -2 -2 -3 -3
0 0 1 1 0 -0 -0 -0 -0 -0 -0 -1 -0 -1 -1 -1 -2 -3 -3 -3 -3 -3 -3 -3 -4 -3 -3 -3 -3 -3 -4 -5 -4 -4 -4 -4 -4 -4 -4 -3 -3 -2 -3 -3
-1 -0 0 0 0 0 0 0 -0 -0 -1 -1 -0 -0 -1 -1 -1 -2 -3 -4 -4 -4 -4 -4 -4 -4 -4 -3 -3 -3 -4 -5 -5 -4 -4 -4 -4 -4 -4 -4 -3 -3 -3 -3
-1 -0 -0 0 0 1 0 0 -0 -0 -1 -1 -0 -0 -1 -1 -1 -2 -3 -4 -4 -4 -4 -4 -4 -4 -4 -4 -3 -3 -4 -4 -5 -5 -5 -5 -4 -4 -4 -4 -4 -4 -4 -3
-0 -0 -0 0 0 0 0 -0 -0 -0 -0 -0 -0 -0 -0 -1 -1 -1 -2 -3 -4 -4 -4 -4 -3 -3 -4 -4 -4 -4 -4 -4 -5 -5 -4 -4 -4 -4 -4 -4 -4 -4 -4 -4
-0 -0 -0 -0 -0 0 -0 -0 -0 -0 -0 -0 -0 -0 -0 -0 -1 -1 -2 -3 -4 -4 -5 -4 -4 -3 -4 -4 -4 -4 -4 -4 -5 -4 -4 -4 -4 -4 -4 -4 -4 -4 -5 -5
0 -0 -0 -0 -0 0 0 -0 -0 -0 -0 -0 -1 -1 -0 -0 -1 -1 -2 -3 -4 -4 -5 -5 -4 -4 -4 -4 -4 -4 -4 -5 -5 -4 -4 -5 -5 -5 -4 -4 -4 -4 -5 -5
0 -0 -0 -0 0 0 0 -0 -0 -0 -0 -0 -0 -1 -1 -1 -1 -1 -2 -3 -3 -4 -4 -5 -5 -4 -4 -4 -4 -5 -5 -5 -5 -5 -5 -5 -5 -5 -5 -5 -5 -5 -5 -5
0 -0 -0 -0 -0 0 -0 -0 -0 0 0 0 -0 -0 -1 -1 -1 -1 -2 -2 -3 -3 -3 -4 -5 -5 -4 -4 -4 -4 -4 -5 -5 -5 -5 -6 -6 -6 -6 -5 -5 -5 -5 -5
-0 -0 -0 -0 -0 0 0 0 1 1 1 1 1 -0 -1 -1 -1 -1 -2 -2 -2 -2 -2 -3 -4 -4 -5 -4 -4 -4 -4 -4 -5 -5 -5 -6 -6 -6 -6 -6 -6 -6 -6 -6
-1 -0 -1 -1 -0 0 1 1 1 2 2 2 2 1 -0 -1 -1 -1 -2 -2 -2 -2 -2 -2 -3 -4 -4 -4 -4 -4 -4 -4 -5 -5 -5 -6 -6 -6 -7 -7 -6 -6 -6 -6
-1 -1 -1 -1 -0 -0 0 1 2 2 2 2 2 2 1 -0 -1 -1 -1 -2 -1 -1 -1 -1 -2 -3 -3 -3 -3 -3 -4 -4 -5 -5 -5 -5 -6 -6 -7 -7 -7 -7 -6 -6
-1 -1 -1 -1 -0 -0 -0 0 1 2 2 2 2 2 1 0 -0 -1 -1 -1 -1 -1 -0 -0 -1 -1 -2 -2 -2 -3 -3 -4 -4 -5 -5 -5 -5 -6 -6 -6 -6 -6 -6 -6
-1 -1 -1 -1 -1 -1 -0 0 1 1 2 2 2 1 0 -0 -0 -0 0 0 0 0 0 0 0 -0 -1 -1 -2 -2 -3 -3 -4 -4 -5 -5 -5 -5 -5 -6 -6 -6 -6 -6
-1 -1 -1 -1 -1 -1 -0 0 1 1 1 1 1 1 0 -0 -0 -0 0 1 1 1 1 1 0 0 0 -1 -1 -2 -2 -2 -3 -4 -4 -5 -4 -4 -4 -5 -5 -5 -5 -5
-1 -1 -1 -1 -1 -1 -0 0 0 0 1 1 1 1 0 -0 -0 0 1 1 1 2 1 1 -0 0 0 -0 -1 -1 -1 -2 -2 -3 -4 -4 -4 -3 -3 -4 -4 -4 -4 -4
-1 -1 -1 -1 -1 -1 -1 -0 0 0 1 1 1 1 0 -0 0 1 1 2 2 2 2 1 0 -0 -0 -0 -1 -1 -1 -2 -2 -3 -3 -3 -3 -2 -2 -2 -2 -2 -2 -2
-1 -1 -1 -1 -1 -1 -1 -0 -0 0 1 1 1 0 -0 -0 0 1 1 1 1 1 1 1 0 -0 -0 -0 -1 -1 -1 -2 -2 -2 -2 -2 -1 -1 -1 -1 -1 -1 -1 -1
-1 -1 -1 -2 -1 -1 -1 -0 -0 -0 0 1 0 0 -0 -0 0 0 1 1 1 1 1 1 0 0 0 -0 -0 -0 -1 -1 -2 -1 -1 -1 -1 -1 -1 -0 0 0 0 0
-1 -1 -1 -2 -2 -1 -1 -1 -0 -0 0 0 0 -0 -0 -0 0 0 0 0 0 1 1 1 0 0 0 0 0 -0 -1 -1 -1 -1 -0 -0 -0 -1 -0 0 1 1 1 1